Find Starlink 35114

NORAD ID: 65502 Int'l Des: 2025-198 Owner: SPXS Country: US Constellation: starlink operational
LEOCIRCULAR

リアルタイム位置

3D地球を読み込み中...

Starlink 35114について

説明を読み込み中...

次回通過

Passes for default location (London). Set your location on the main map for personalized predictions.

高度履歴

Loading altitude history...

軌道要素

1 65502U 25198L 26107.17014981 .00013916 00000-0 48103-3 0 9999
2 65502 53.1579 92.1142 0001238 83.6212 276.4929 15.30203138 34513
Epoch: Apr 17, 2026 • Age: 11 hours

現在のステータス

高度 480.9 km
速度 7.63 km/s
衛星直下点 -19.77°S, 4.5°E
打ち上げ日 Sep 5, 2025
運用期間 0.6 years
タイプ internet

技術仕様

分類 Payload
質量 575.00 kg
乾燥質量 530.00 kg
総質量 575.00 kg
長さ 0.30 m
直径 4.10 m
スパン 29.00 m
形状 Box + pan
製造者 SPXS
バスタイプ Starlink V2MO
フェーズステータス In Orbit
所有者/国 SPXS/US

Most Searched